Location: Cactus School
(34.5700°N, 118.0931°W)
Time: 02:04:50
(UTC-08:00)

Tiros 1 - Pass Details

Date: 26 November 2019
Orbit: 630 x 664 km, 48.4° (Epoch: 14 December)

Event Time Altitude Azimuth Distance (km) Brightness Sun altitude
Rises 15:05:07 0° 311° (NW) 2,917 10.6 16.1°
Reaches altitude 10° 15:08:09 10° 331° (NNW) 2,009 9.6 15.6°
Maximum altitude 15:11:13 17° 13° (NNE) 1,586 8.8 15.1°
Drops below altitude 10° 15:14:17 10° 55° (NE) 2,012 9.1 14.6°
Sets 15:17:20 0° 75° (ENE) 2,923 10.0 14.1°
